contact:dominique.lefevre@mio.osupytheas.fr, maurice.libes@osupytheas.fr, didier.mallarino@osupytheas.fr
Project:EMSO http://www.emso-fr.org/EMSO-France
Depth: 2436.0 m
Title:EMSO Ligure Ouest : Data MII capteur AQUADOPP
Date,Latitude,Longitude,X_East,Y_North,Z_Up,Amplitude_X,Amplitude_Y,Amplitude_Z,Batterie,SoundSpeed,Heading,Pitch,Roll,Pressure,TIS,Speed,Direction
, degrees North, degrees East, m.s-1, m.s-1,m.s-1, 1, 1, 1, Volt, m.s-1, degree, degree, degree, dbar, degree_C, m.s-1, degree
2021-11-15T00:04:03,42.805,6.029,-0.066,-0.008,-0.045,101.0,101.0,100.0,13.4,1505.2,331.0,-0.8,1.8,2470.586,13.28,0.066,263.1
2021-11-15T00:07:03,42.805,6.029,-0.049,0.015,-0.034,101.0,100.0,100.0,13.3,1505.2,326.6,-0.7,1.8,2470.575,13.28,0.051,287.0
2021-11-15T00:10:03,42.805,6.029,-0.054,0.019,-0.035,101.0,100.0,101.0,13.4,1505.2,329.0,-0.8,1.8,2470.587,13.28,0.057,289.4
2021-11-15T00:13:03,42.805,6.029,-0.045,0.002,-0.048,99.0,99.0,100.0,13.3,1505.2,328.4,-0.8,1.8,2470.574,13.28,0.045,272.5
2021-11-15T00:16:03,42.805,6.029,-0.04,0.028,-0.017,100.0,101.0,100.0,13.4,1505.2,325.8,-0.7,1.8,2470.56,13.28,0.048,305.0
2021-11-15T00:19:03,42.805,6.029,-0.065,0.017,-0.012,100.0,100.0,100.0,13.4,1505.2,331.2,-0.7,1.8,2470.576,13.28,0.067,284.7
2021-11-15T00:22:03,42.805,6.029,-0.048,0.01,-0.001,100.0,100.0,99.0,13.3,1505.2,326.6,-0.7,1.8,2470.589,13.28,0.049,281.8
2021-11-15T00:25:03,42.805,6.029,-0.054,0.018,-0.025,101.0,100.0,100.0,13.4,1505.2,327.7,-0.7,1.8,2470.546,13.28,0.056,288.4
2021-11-15T00:28:03,42.805,6.029,-0.047,0.008,-0.033,101.0,99.0,100.0,13.3,1505.2,325.6,-0.8,1.8,2470.572,13.28,0.047,279.7
2021-11-15T00:31:03,42.805,6.029,-0.06,0.018,-0.039,100.0,100.0,100.0,13.3,1505.2,330.0,-0.7,1.8,2470.591,13.28,0.062,286.7
2021-11-15T00:34:03,42.805,6.029,-0.067,0.028,-0.018,101.0,100.0,100.0,13.4,1505.2,329.3,-0.8,1.8,2470.598,13.28,0.072,292.7
2021-11-15T00:37:03,42.805,6.029,-0.085,0.023,-0.049,101.0,100.0,99.0,13.3,1505.2,330.0,-0.8,1.8,2470.542,13.28,0.088,285.1
2021-11-15T00:40:03,42.805,6.029,-0.038,-0.005,-0.04,101.0,100.0,100.0,13.3,1505.2,329.1,-0.8,1.8,2470.588,13.28,0.038,262.5
2021-11-15T00:43:03,42.805,6.029,-0.052,0.005,-0.027,100.0,100.0,100.0,13.3,1505.2,328.9,-0.8,1.8,2470.538,13.28,0.052,275.5
2021-11-15T00:46:03,42.805,6.029,-0.064,0.032,-0.047,100.0,100.0,99.0,13.3,1505.2,327.7,-0.8,1.8,2470.566,13.28,0.071,296.6
2021-11-15T00:49:03,42.805,6.029,-0.034,0.036,0.011,101.0,100.0,100.0,13.4,1505.2,326.4,-0.7,1.8,2470.602,13.28,0.049,316.6
2021-11-15T00:52:03,42.805,6.029,-0.03,-0.01,-0.001,101.0,102.0,101.0,13.3,1505.2,325.5,-0.8,1.8,2470.561,13.28,0.031,251.6
2021-11-15T00:55:03,42.805,6.029,-0.044,0.027,-0.015,99.0,101.0,100.0,13.4,1505.2,326.4,-0.7,1.8,2470.579,13.28,0.051,301.5
2021-11-15T00:58:03,42.805,6.029,-0.043,0.023,-0.017,100.0,100.0,100.0,13.4,1505.2,330.6,-0.7,1.8,2470.606,13.28,0.048,298.1
2021-11-15T01:04:03,42.805,6.029,-0.021,-0.01,-0.029,100.0,102.0,101.0,13.4,1505.2,330.4,-0.8,1.8,2470.606,13.28,0.023,244.5
2021-11-15T01:07:03,42.805,6.029,-0.049,0.013,-0.016,103.0,102.0,100.0,13.3,1505.2,330.7,-0.8,1.8,2470.631,13.28,0.05,284.9
2021-11-15T01:10:03,42.805,6.029,-0.03,-0.019,-0.033,101.0,99.0,101.0,13.4,1505.2,328.9,-0.7,1.8,2470.624,13.28,0.035,237.7
2021-11-15T01:13:03,42.805,6.029,-0.043,0.016,-0.018,100.0,101.0,99.0,13.4,1505.2,327.8,-0.8,1.8,2470.624,13.28,0.045,290.4
2021-11-15T01:16:03,42.805,6.029,-0.07,0.023,-0.054,101.0,100.0,100.0,13.4,1505.2,327.0,-0.7,1.8,2470.562,13.28,0.073,288.2
2021-11-15T01:19:03,42.805,6.029,-0.03,-0.01,-0.025,103.0,101.0,100.0,13.4,1505.2,329.2,-0.7,1.8,2470.586,13.28,0.031,251.6
2021-11-15T01:22:03,42.805,6.029,-0.058,0.007,-0.015,101.0,100.0,100.0,13.4,1505.2,327.9,-0.8,1.8,2470.597,13.28,0.058,276.9
2021-11-15T01:25:03,42.805,6.029,-0.037,0.027,-0.02,101.0,100.0,100.0,13.3,1505.2,331.6,-0.8,1.9,2470.591,13.28,0.045,306.1
2021-11-15T01:28:03,42.805,6.029,-0.036,0.003,-0.025,101.0,100.0,101.0,13.3,1505.2,325.6,-0.8,1.8,2470.575,13.28,0.036,274.8
2021-11-15T01:31:03,42.805,6.029,-0.04,0.018,0.002,101.0,103.0,99.0,13.4,1505.2,331.4,-0.8,1.8,2470.635,13.28,0.043,294.2
2021-11-15T01:34:03,42.805,6.029,-0.015,0.006,-0.021,100.0,102.0,99.0,13.4,1505.2,327.4,-0.8,1.8,2470.568,13.28,0.016,291.8
2021-11-15T01:37:03,42.805,6.029,-0.037,-0.007,-0.017,101.0,100.0,99.0,13.4,1505.2,327.3,-0.7,1.8,2470.588,13.28,0.037,259.3
2021-11-15T01:40:03,42.805,6.029,-0.036,0.009,-0.001,100.0,99.0,101.0,13.4,1505.2,327.2,-0.7,1.8,2470.593,13.28,0.037,284.0
2021-11-15T01:43:03,42.805,6.029,-0.051,0.025,-0.024,101.0,100.0,100.0,13.4,1505.2,327.7,-0.8,1.8,2470.621,13.28,0.056,296.1
2021-11-15T01:46:03,42.805,6.029,-0.024,0.0,-0.044,100.0,101.0,99.0,13.4,1505.2,325.3,-0.8,1.8,2470.616,13.28,0.024,270.0
2021-11-15T01:49:03,42.805,6.029,-0.068,0.011,-0.054,102.0,102.0,100.0,13.4,1505.2,330.2,-0.8,1.8,2470.601,13.28,0.068,279.2
2021-11-15T01:52:03,42.805,6.029,-0.041,0.007,-0.035,100.0,100.0,100.0,13.4,1505.2,330.0,-0.7,1.8,2470.604,13.28,0.041,279.7
2021-11-15T01:55:03,42.805,6.029,-0.04,0.007,-0.047,101.0,100.0,100.0,13.3,1505.2,327.7,-0.7,1.8,2470.574,13.28,0.04,279.9
2021-11-15T01:58:03,42.805,6.029,-0.043,0.002,-0.044,100.0,101.0,100.0,13.4,1505.2,326.6,-0.7,1.8,2470.583,13.28,0.043,272.7
2021-11-15T02:04:03,42.805,6.029,-0.037,0.016,-0.001,101.0,100.0,100.0,13.3,1505.2,327.6,-0.8,1.8,2470.634,13.28,0.04,293.4
2021-11-15T02:07:03,42.805,6.029,-0.046,0.007,-0.036,101.0,100.0,100.0,13.4,1505.2,331.1,-0.8,1.8,2470.666,13.28,0.046,278.7
2021-11-15T02:10:03,42.805,6.029,-0.032,0.01,-0.002,101.0,100.0,100.0,13.4,1505.2,331.6,-0.8,1.8,2470.647,13.28,0.033,287.4
2021-11-15T02:13:03,42.805,6.029,-0.026,0.037,-0.007,101.0,101.0,99.0,13.4,1505.2,329.7,-0.7,1.8,2470.651,13.28,0.045,324.9
2021-11-15T02:16:03,42.805,6.029,-0.049,0.017,0.003,100.0,100.0,100.0,13.4,1505.2,327.0,-0.8,1.8,2470.604,13.28,0.051,289.1
2021-11-15T02:19:03,42.805,6.029,-0.048,0.016,-0.014,101.0,100.0,99.0,13.4,1505.2,326.3,-0.7,1.8,2470.602,13.28,0.05,288.4
2021-11-15T02:22:03,42.805,6.029,-0.056,-0.015,-0.065,100.0,100.0,100.0,13.4,1505.2,328.6,-0.7,1.8,2470.651,13.28,0.057,255.0
2021-11-15T02:25:03,42.805,6.029,-0.053,0.015,-0.028,100.0,101.0,100.0,13.4,1505.2,326.5,-0.8,1.8,2470.652,13.28,0.055,285.8
2021-11-15T02:28:03,42.805,6.029,-0.029,0.018,-0.029,102.0,101.0,98.0,13.3,1505.2,331.5,-0.8,1.8,2470.612,13.28,0.034,301.8
2021-11-15T02:31:03,42.805,6.029,-0.036,0.03,-0.024,101.0,100.0,99.0,13.4,1505.2,331.0,-0.7,1.8,2470.605,13.28,0.046,309.8
2021-11-15T02:34:03,42.805,6.029,-0.058,0.01,-0.027,99.0,99.0,100.0,13.4,1505.2,326.6,-0.7,1.8,2470.634,13.28,0.058,279.8
2021-11-15T02:37:03,42.805,6.029,-0.072,0.013,-0.048,100.0,102.0,99.0,13.3,1505.2,327.2,-0.8,1.8,2470.642,13.28,0.073,280.2
2021-11-15T02:40:03,42.805,6.029,-0.058,0.006,-0.028,100.0,100.0,100.0,13.4,1505.2,330.3,-0.7,1.8,2470.612,13.28,0.058,275.9
2021-11-15T02:43:03,42.805,6.029,-0.041,0.023,-0.011,99.0,101.0,100.0,13.3,1505.2,327.9,-0.7,1.8,2470.609,13.28,0.047,299.3
2021-11-15T02:46:03,42.805,6.029,-0.043,0.0,-0.043,100.0,100.0,100.0,13.4,1505.2,330.2,-0.8,1.8,2470.623,13.28,0.043,270.0
2021-11-15T02:49:03,42.805,6.029,-0.049,0.0,-0.044,101.0,101.0,100.0,13.4,1505.2,325.7,-0.7,1.8,2470.622,13.28,0.049,270.0
2021-11-15T02:52:03,42.805,6.029,-0.034,0.007,-0.019,101.0,101.0,100.0,13.4,1505.2,328.6,-0.8,1.8,2470.617,13.28,0.034,281.6
2021-11-15T02:55:03,42.805,6.029,-0.029,0.004,-0.033,100.0,100.0,100.0,13.3,1505.2,329.8,-0.7,1.8,2470.622,13.28,0.029,277.8
2021-11-15T02:58:03,42.805,6.029,-0.029,0.024,-0.01,100.0,100.0,102.0,13.4,1505.2,326.7,-0.7,1.8,2470.631,13.28,0.037,309.6
2021-11-15T03:04:03,42.805,6.029,-0.021,0.017,-0.005,101.0,100.0,100.0,13.4,1505.2,330.8,-0.8,1.9,2470.681,13.28,0.027,309.0
2021-11-15T03:07:03,42.805,6.029,-0.022,0.002,-0.035,101.0,100.0,100.0,13.3,1505.2,327.5,-0.8,1.8,2470.686,13.28,0.022,275.2
2021-11-15T03:10:03,42.805,6.029,-0.054,0.02,-0.016,100.0,101.0,100.0,13.3,1505.2,326.5,-0.8,1.8,2470.668,13.28,0.057,290.3
2021-11-15T03:13:03,42.805,6.029,-0.037,0.024,-0.008,101.0,102.0,100.0,13.4,1505.2,327.1,-0.8,1.8,2470.662,13.28,0.044,303.0
2021-11-15T03:16:03,42.805,6.029,-0.063,0.027,-0.007,100.0,102.0,99.0,13.3,1505.2,328.3,-0.7,1.9,2470.681,13.28,0.068,293.2
2021-11-15T03:19:03,42.805,6.029,-0.055,0.016,-0.034,100.0,100.0,100.0,13.3,1505.2,325.9,-0.8,1.8,2470.627,13.28,0.057,286.2
2021-11-15T03:22:03,42.805,6.029,-0.019,-0.005,-0.034,101.0,99.0,99.0,13.4,1505.2,328.1,-0.7,1.8,2470.671,13.28,0.019,255.3
2021-11-15T03:25:03,42.805,6.029,-0.048,0.0,-0.006,99.0,103.0,99.0,13.4,1505.2,327.8,-0.7,1.8,2470.711,13.28,0.048,270.0
2021-11-15T03:28:03,42.805,6.029,-0.048,-0.002,-0.037,101.0,100.0,100.0,13.4,1505.2,326.8,-0.8,1.8,2470.638,13.28,0.048,267.6
2021-11-15T03:31:03,42.805,6.029,-0.013,0.012,0.001,100.0,100.0,100.0,13.4,1505.2,327.0,-0.8,1.8,2470.656,13.28,0.017,312.7
2021-11-15T03:34:03,42.805,6.029,-0.062,0.004,-0.023,102.0,99.0,100.0,13.4,1505.2,327.0,-0.8,1.8,2470.666,13.28,0.062,273.7
2021-11-15T03:37:03,42.805,6.029,-0.05,0.025,-0.006,98.0,101.0,101.0,13.3,1505.2,327.8,-0.8,1.8,2470.657,13.28,0.055,296.6
2021-11-15T03:40:03,42.805,6.029,-0.056,0.029,0.012,100.0,100.0,101.0,13.4,1505.2,329.6,-0.7,1.8,2470.681,13.28,0.063,297.4
2021-11-15T03:43:03,42.805,6.029,-0.05,0.009,-0.028,102.0,99.0,99.0,13.3,1505.2,326.1,-0.7,1.9,2470.618,13.28,0.05,280.2
2021-11-15T03:46:03,42.805,6.029,-0.048,0.029,0.004,100.0,101.0,100.0,13.4,1505.2,325.7,-0.8,1.8,2470.668,13.28,0.056,301.1
2021-11-15T03:49:03,42.805,6.029,-0.033,0.013,-0.024,101.0,99.0,100.0,13.4,1505.2,329.4,-0.7,1.8,2470.692,13.28,0.035,291.5
2021-11-15T03:52:03,42.805,6.029,-0.061,0.002,-0.036,99.0,102.0,99.0,13.3,1505.2,327.6,-0.8,1.8,2470.671,13.28,0.061,271.9
2021-11-15T03:55:03,42.805,6.029,-0.035,0.019,-0.009,100.0,100.0,99.0,13.4,1505.2,329.2,-0.8,1.8,2470.663,13.28,0.039,298.5
2021-11-15T03:58:03,42.805,6.029,-0.028,-0.005,-0.041,101.0,99.0,100.0,13.4,1505.2,331.6,-0.7,1.8,2470.703,13.28,0.028,259.9
2021-11-15T04:04:03,42.805,6.029,-0.05,0.005,-0.049,101.0,100.0,99.0,13.3,1505.2,325.4,-0.8,1.8,2470.701,13.28,0.05,275.7
2021-11-15T04:07:03,42.805,6.029,-0.034,0.014,-0.004,100.0,101.0,100.0,13.4,1505.2,326.0,-0.7,1.8,2470.714,13.28,0.036,292.4
2021-11-15T04:10:03,42.805,6.029,-0.051,0.003,-0.059,101.0,99.0,100.0,13.4,1505.2,329.3,-0.7,1.9,2470.664,13.28,0.051,273.4
2021-11-15T04:13:03,42.805,6.029,-0.055,0.03,-0.017,100.0,101.0,100.0,13.3,1505.2,328.5,-0.7,1.8,2470.679,13.28,0.062,298.6
2021-11-15T04:16:03,42.805,6.029,-0.059,0.0,-0.06,100.0,100.0,100.0,13.4,1505.2,327.8,-0.7,1.8,2470.712,13.28,0.058,270.0
2021-11-15T04:19:03,42.805,6.029,-0.071,0.026,-0.028,100.0,100.0,100.0,13.3,1505.2,328.6,-0.7,1.8,2470.659,13.28,0.075,290.1
2021-11-15T04:22:03,42.805,6.029,-0.075,0.031,-0.037,100.0,100.0,100.0,13.4,1505.2,328.9,-0.7,1.8,2470.665,13.28,0.081,292.5
2021-11-15T04:25:03,42.805,6.029,-0.057,-0.001,-0.045,100.0,100.0,99.0,13.4,1505.2,329.0,-0.8,1.8,2470.657,13.28,0.057,269.0
2021-11-15T04:28:03,42.805,6.029,-0.028,-0.014,-0.038,101.0,100.0,99.0,13.4,1505.2,325.8,-0.8,1.8,2470.659,13.28,0.031,243.4
2021-11-15T04:31:03,42.805,6.029,-0.014,-0.001,-0.01,99.0,100.0,100.0,13.4,1505.2,329.4,-0.7,1.8,2470.678,13.28,0.014,265.9
2021-11-15T04:34:03,42.805,6.029,-0.055,0.0,-0.047,100.0,100.0,100.0,13.4,1505.2,330.4,-0.8,1.9,2470.618,13.28,0.055,270.0
2021-11-15T04:37:03,42.805,6.029,-0.036,0.012,-0.003,102.0,100.0,99.0,13.4,1505.2,331.7,-0.8,1.8,2470.69,13.28,0.037,288.4
2021-11-15T04:40:03,42.805,6.029,-0.04,0.019,-0.001,100.0,100.0,100.0,13.4,1505.2,328.9,-0.7,1.8,2470.679,13.28,0.044,295.4
2021-11-15T04:43:03,42.805,6.029,-0.092,0.027,-0.043,102.0,100.0,98.0,13.4,1505.2,328.9,-0.8,1.8,2470.637,13.28,0.095,286.4
2021-11-15T04:46:03,42.805,6.029,-0.076,0.026,-0.034,99.0,101.0,100.0,13.4,1505.2,326.5,-0.7,1.8,2470.7,13.28,0.08,288.9
2021-11-15T04:49:03,42.805,6.029,-0.049,-0.005,-0.064,100.0,100.0,99.0,13.3,1505.2,327.0,-0.7,1.8,2470.629,13.28,0.049,264.2
2021-11-15T04:52:03,42.805,6.029,-0.052,0.004,-0.048,100.0,100.0,100.0,13.3,1505.2,330.5,-0.8,1.8,2470.697,13.28,0.052,274.4
2021-11-15T04:55:03,42.805,6.029,-0.022,-0.005,-0.007,100.0,100.0,99.0,13.3,1505.2,330.0,-0.7,1.8,2470.681,13.28,0.022,257.2
2021-11-15T04:58:03,42.805,6.029,-0.042,0.005,-0.037,100.0,100.0,99.0,13.4,1505.2,327.6,-0.8,1.8,2470.689,13.28,0.042,276.8
2021-11-15T05:04:03,42.805,6.029,-0.042,0.013,-0.048,100.0,100.0,99.0,13.4,1505.2,329.2,-0.8,1.8,2470.707,13.28,0.043,287.2
2021-11-15T05:07:03,42.805,6.029,-0.063,0.007,-0.042,100.0,100.0,99.0,13.4,1505.2,328.7,-0.7,1.8,2470.692,13.28,0.063,276.3
2021-11-15T05:10:03,42.805,6.029,-0.041,0.013,-0.053,100.0,99.0,100.0,13.4,1505.2,329.0,-0.7,1.8,2470.721,13.28,0.043,287.6
2021-11-15T05:13:03,42.805,6.029,-0.068,0.002,-0.003,100.0,101.0,100.0,13.3,1505.2,325.2,-0.8,1.8,2470.702,13.28,0.068,271.7
2021-11-15T05:16:03,42.805,6.029,-0.051,0.034,-0.006,100.0,99.0,100.0,13.4,1505.2,331.8,-0.7,1.8,2470.696,13.28,0.061,303.7
2021-11-15T05:19:03,42.805,6.029,-0.059,0.001,-0.041,100.0,100.0,99.0,13.4,1505.2,327.9,-0.7,1.8,2470.69,13.28,0.059,271.0
2021-11-15T05:22:03,42.805,6.029,-0.055,0.014,-0.009,99.0,100.0,100.0,13.4,1505.2,329.5,-0.7,1.8,2470.68,13.28,0.056,284.3
2021-11-15T05:25:03,42.805,6.029,-0.027,-0.004,-0.017,100.0,100.0,100.0,13.4,1505.2,329.7,-0.7,1.8,2470.718,13.28,0.027,261.6
2021-11-15T05:28:03,42.805,6.029,-0.041,-0.001,-0.043,100.0,101.0,99.0,13.4,1505.2,331.9,-0.7,1.8,2470.693,13.28,0.041,268.6
2021-11-15T05:31:03,42.805,6.029,-0.028,0.0,-0.047,100.0,101.0,100.0,13.4,1505.2,332.0,-0.8,1.8,2470.654,13.28,0.028,270.0
2021-11-15T05:34:03,42.805,6.029,-0.053,0.025,-0.024,101.0,100.0,99.0,13.4,1505.2,330.6,-0.8,1.8,2470.654,13.28,0.058,295.3
2021-11-15T05:37:03,42.805,6.029,-0.03,0.003,-0.006,101.0,100.0,99.0,13.3,1505.2,327.4,-0.8,1.8,2470.647,13.28,0.03,275.7
2021-11-15T05:40:03,42.805,6.029,-0.049,0.011,-0.053,101.0,100.0,100.0,13.3,1505.2,326.7,-0.8,1.8,2470.69,13.28,0.05,282.7
2021-11-15T05:43:03,42.805,6.029,-0.04,-0.004,-0.049,100.0,99.0,100.0,13.4,1505.2,327.5,-0.8,1.8,2470.624,13.28,0.04,264.3
2021-11-15T05:46:03,42.805,6.029,-0.073,0.006,-0.004,100.0,100.0,99.0,13.4,1505.2,326.1,-0.7,1.8,2470.631,13.28,0.073,274.7
2021-11-15T05:49:03,42.805,6.029,-0.051,0.012,-0.01,100.0,100.0,101.0,13.4,1505.2,328.0,-0.8,1.8,2470.65,13.28,0.052,283.2
2021-11-15T05:52:03,42.805,6.029,-0.049,-0.015,-0.055,101.0,99.0,98.0,13.4,1505.2,329.8,-0.8,1.8,2470.643,13.28,0.051,253.0
2021-11-15T05:55:03,42.805,6.029,-0.047,0.008,-0.049,100.0,99.0,100.0,13.4,1505.2,328.0,-0.8,1.9,2470.654,13.28,0.047,279.7
2021-11-15T05:58:03,42.805,6.029,-0.063,0.013,-0.041,100.0,101.0,99.0,13.4,1505.2,329.7,-0.8,1.8,2470.631,13.28,0.064,281.7
2021-11-15T06:04:03,42.805,6.029,-0.053,-0.006,-0.039,101.0,102.0,100.0,13.4,1505.2,328.4,-0.7,1.8,2470.679,13.28,0.053,263.5
2021-11-15T06:07:03,42.805,6.029,-0.057,0.014,-0.018,99.0,100.0,99.0,13.4,1505.2,327.6,-0.7,1.8,2470.678,13.28,0.058,283.8
2021-11-15T06:10:03,42.805,6.029,-0.032,0.003,-0.005,100.0,99.0,100.0,13.3,1505.2,327.3,-0.7,1.8,2470.647,13.28,0.032,275.4
2021-11-15T06:13:03,42.805,6.029,-0.028,0.011,-0.023,101.0,101.0,99.0,13.4,1505.2,329.6,-0.7,1.8,2470.698,13.28,0.03,291.4
2021-11-15T06:16:03,42.805,6.029,-0.036,-0.011,-0.021,101.0,100.0,100.0,13.4,1505.2,327.2,-0.7,1.8,2470.699,13.28,0.037,253.0
2021-11-15T06:19:03,42.805,6.029,-0.041,0.009,-0.041,99.0,101.0,99.0,13.3,1505.2,329.1,-0.7,1.8,2470.702,13.28,0.041,282.4
2021-11-15T06:22:03,42.805,6.029,-0.044,-0.001,-0.074,100.0,100.0,99.0,13.3,1505.2,327.1,-0.7,1.8,2470.649,13.28,0.044,268.7
2021-11-15T06:25:03,42.805,6.029,-0.044,0.006,-0.014,99.0,99.0,100.0,13.4,1505.2,329.9,-0.8,1.8,2470.675,13.28,0.044,277.8
2021-11-15T06:28:03,42.805,6.029,-0.04,0.026,-0.027,100.0,100.0,100.0,13.4,1505.2,327.8,-0.8,1.8,2470.668,13.28,0.047,303.0
2021-11-15T06:31:03,42.805,6.029,-0.042,0.006,-0.039,99.0,100.0,99.0,13.3,1505.2,325.4,-0.8,1.8,2470.694,13.28,0.042,278.1
2021-11-15T06:34:03,42.805,6.029,-0.034,-0.009,-0.039,100.0,100.0,100.0,13.4,1505.2,332.0,-0.8,1.8,2470.675,13.28,0.035,255.2
2021-11-15T06:37:03,42.805,6.029,-0.067,-0.01,-0.053,101.0,100.0,99.0,13.3,1505.2,327.6,-0.7,1.8,2470.666,13.28,0.067,261.5
2021-11-15T06:40:03,42.805,6.029,-0.073,0.009,-0.048,101.0,100.0,98.0,13.4,1505.2,327.1,-0.8,1.8,2470.645,13.28,0.073,277.0
2021-11-15T06:43:03,42.805,6.029,-0.025,0.006,-0.023,99.0,100.0,100.0,13.4,1505.2,326.9,-0.8,1.8,2470.652,13.28,0.025,283.5
2021-11-15T06:46:03,42.805,6.029,-0.035,0.006,-0.013,98.0,99.0,101.0,13.3,1505.2,328.1,-0.8,1.8,2470.647,13.28,0.035,279.7
2021-11-15T06:49:03,42.805,6.029,-0.04,-0.003,-0.026,98.0,100.0,101.0,13.4,1505.2,327.3,-0.8,1.9,2470.612,13.28,0.04,265.7
2021-11-15T06:52:03,42.805,6.029,-0.042,-0.003,-0.05,99.0,99.0,100.0,13.3,1505.2,330.4,-0.8,1.9,2470.637,13.28,0.042,265.9
2021-11-15T06:55:03,42.805,6.029,-0.05,-0.003,-0.049,100.0,100.0,99.0,13.3,1505.2,329.2,-0.8,1.8,2470.604,13.28,0.05,266.6
2021-11-15T06:58:03,42.805,6.029,-0.051,-0.005,-0.071,100.0,100.0,99.0,13.4,1505.2,327.7,-0.8,1.8,2470.661,13.28,0.051,264.4
2021-11-15T07:04:03,42.805,6.029,-0.083,0.01,-0.026,100.0,100.0,100.0,13.4,1505.2,329.0,-0.8,1.8,2470.66,13.28,0.083,276.9
2021-11-15T07:07:03,42.805,6.029,-0.022,0.0,-0.009,100.0,99.0,99.0,13.3,1505.2,327.3,-0.8,1.8,2470.679,13.28,0.022,270.0
2021-11-15T07:10:03,42.805,6.029,-0.049,0.021,-0.032,102.0,102.0,98.0,13.4,1505.2,329.0,-0.7,1.8,2470.666,13.28,0.053,293.2
2021-11-15T07:13:03,42.805,6.029,-0.022,0.01,-0.029,100.0,100.0,99.0,13.4,1505.2,329.1,-0.7,1.8,2470.671,13.28,0.024,294.4
2021-11-15T07:16:03,42.805,6.029,-0.057,-0.007,-0.039,100.0,101.0,99.0,13.4,1505.2,329.7,-0.8,1.8,2470.682,13.28,0.057,263.0
2021-11-15T07:19:03,42.805,6.029,-0.043,0.002,-0.04,100.0,99.0,99.0,13.4,1505.2,329.8,-0.8,1.8,2470.642,13.28,0.043,272.7
2021-11-15T07:22:03,42.805,6.029,-0.075,0.002,-0.062,99.0,99.0,100.0,13.4,1505.2,327.8,-0.7,1.8,2470.631,13.28,0.075,271.5
2021-11-15T07:25:03,42.805,6.029,-0.05,0.009,-0.016,99.0,100.0,99.0,13.4,1505.2,326.8,-0.8,1.8,2470.626,13.28,0.05,280.2
2021-11-15T07:28:03,42.805,6.029,-0.053,0.02,0.0,101.0,100.0,99.0,13.4,1505.2,329.8,-0.8,1.8,2470.644,13.28,0.056,290.7
2021-11-15T07:31:03,42.805,6.029,-0.063,0.005,-0.05,101.0,101.0,99.0,13.4,1505.2,329.0,-0.7,1.8,2470.63,13.28,0.063,274.5
2021-11-15T07:34:03,42.805,6.029,-0.029,-0.003,-0.032,100.0,100.0,99.0,13.4,1505.2,325.9,-0.7,1.9,2470.633,13.28,0.029,264.1
2021-11-15T07:37:03,42.805,6.029,-0.04,0.014,-0.034,99.0,100.0,100.0,13.3,1505.2,329.3,-0.7,1.8,2470.603,13.28,0.042,289.3
2021-11-15T07:40:03,42.805,6.029,-0.044,0.018,-0.031,102.0,98.0,99.0,13.4,1505.2,328.7,-0.8,1.8,2470.647,13.28,0.047,292.2
2021-11-15T07:43:03,42.805,6.029,-0.024,0.003,-0.027,101.0,98.0,100.0,13.4,1505.2,331.4,-0.7,1.9,2470.634,13.28,0.024,277.1
2021-11-15T07:46:03,42.805,6.029,-0.06,0.0,-0.021,101.0,100.0,99.0,13.4,1505.2,329.6,-0.8,1.8,2470.651,13.28,0.06,270.0
2021-11-15T07:49:03,42.805,6.029,-0.03,-0.004,-0.037,100.0,100.0,98.0,13.4,1505.2,327.0,-0.8,1.8,2470.656,13.28,0.03,262.4
2021-11-15T07:52:03,42.805,6.029,-0.069,0.0,-0.048,100.0,100.0,99.0,13.4,1505.2,330.6,-0.8,1.8,2470.619,13.28,0.068,270.0
2021-11-15T07:55:03,42.805,6.029,-0.033,0.0,-0.004,101.0,100.0,98.0,13.4,1505.2,327.6,-0.8,1.8,2470.613,13.28,0.033,270.0
2021-11-15T07:58:03,42.805,6.029,-0.055,0.01,-0.022,100.0,100.0,99.0,13.4,1505.2,330.4,-0.7,1.8,2470.606,13.28,0.055,280.3
2021-11-15T08:04:03,42.805,6.029,-0.056,0.0,-0.05,100.0,100.0,100.0,13.4,1505.2,328.5,-0.8,1.8,2470.674,13.28,0.056,270.0
2021-11-15T08:07:03,42.805,6.029,-0.054,-0.013,-0.029,99.0,101.0,100.0,13.3,1505.2,329.3,-0.8,1.8,2470.68,13.28,0.055,256.5
2021-11-15T08:10:03,42.805,6.029,-0.049,-0.003,-0.015,101.0,97.0,99.0,13.3,1505.2,328.0,-0.7,1.8,2470.637,13.28,0.049,266.5
2021-11-15T08:13:03,42.805,6.029,-0.026,-0.012,-0.015,101.0,100.0,99.0,13.3,1505.2,325.8,-0.7,1.8,2470.637,13.28,0.028,245.2
2021-11-15T08:16:03,42.805,6.029,-0.039,-0.025,-0.025,100.0,100.0,100.0,13.4,1505.2,326.1,-0.7,1.8,2470.633,13.28,0.046,237.3
2021-11-15T08:19:03,42.805,6.029,-0.054,-0.018,-0.039,100.0,99.0,100.0,13.3,1505.2,328.3,-0.8,1.8,2470.623,13.28,0.056,251.6
2021-11-15T08:22:03,42.805,6.029,-0.049,-0.022,-0.039,102.0,98.0,100.0,13.4,1505.2,330.7,-0.8,1.8,2470.607,13.28,0.053,245.8
2021-11-15T08:25:03,42.805,6.029,-0.031,-0.011,-0.024,101.0,100.0,98.0,13.4,1505.2,328.3,-0.8,1.9,2470.604,13.28,0.032,250.5
2021-11-15T08:28:03,42.805,6.029,-0.051,0.007,-0.008,100.0,100.0,99.0,13.4,1505.2,328.4,-0.8,1.8,2470.62,13.28,0.051,277.8
2021-11-15T08:31:03,42.805,6.029,-0.035,-0.012,-0.033,102.0,100.0,99.0,13.3,1505.2,330.8,-0.8,1.8,2470.603,13.28,0.037,251.1
2021-11-15T08:34:03,42.805,6.029,-0.034,-0.032,-0.011,100.0,100.0,100.0,13.4,1505.2,326.1,-0.8,1.8,2470.634,13.28,0.046,226.7
2021-11-15T08:37:03,42.805,6.029,-0.053,0.002,-0.015,101.0,100.0,99.0,13.3,1505.2,329.6,-0.7,1.8,2470.657,13.28,0.053,272.2
2021-11-15T08:40:03,42.805,6.029,-0.059,0.022,-0.052,100.0,100.0,99.0,13.4,1505.2,328.9,-0.7,1.8,2470.61,13.28,0.062,290.4
2021-11-15T08:43:03,42.805,6.029,-0.041,0.005,-0.063,99.0,101.0,99.0,13.3,1505.2,326.9,-0.8,1.8,2470.635,13.28,0.041,277.0
2021-11-15T08:46:03,42.805,6.029,-0.02,-0.004,-0.031,102.0,100.0,99.0,13.4,1505.2,327.9,-0.8,1.9,2470.605,13.28,0.02,258.7
2021-11-15T08:49:03,42.805,6.029,-0.04,0.0,-0.008,101.0,101.0,98.0,13.4,1505.2,329.8,-0.8,1.8,2470.614,13.28,0.04,270.0
2021-11-15T08:52:03,42.805,6.029,-0.051,-0.01,-0.041,100.0,101.0,101.0,13.4,1505.2,325.5,-0.8,1.8,2470.59,13.28,0.051,258.9
2021-11-15T08:55:03,42.805,6.029,-0.042,0.01,-0.034,100.0,99.0,100.0,13.4,1505.2,326.0,-0.8,1.8,2470.616,13.28,0.043,283.4
2021-11-15T08:58:03,42.805,6.029,-0.035,-0.016,-0.058,101.0,100.0,99.0,13.4,1505.2,325.7,-0.8,1.8,2470.6,13.28,0.038,245.4
2021-11-15T09:04:03,42.805,6.029,-0.052,-0.007,-0.036,101.0,100.0,100.0,13.3,1505.2,330.9,-0.7,1.8,2470.663,13.28,0.052,262.3
2021-11-15T09:07:03,42.805,6.029,-0.041,-0.001,-0.026,100.0,99.0,100.0,13.3,1505.2,328.6,-0.8,1.8,2470.674,13.28,0.041,268.6
2021-11-15T09:10:03,42.805,6.029,-0.04,0.001,-0.011,100.0,101.0,99.0,13.3,1505.2,327.8,-0.7,1.8,2470.629,13.28,0.04,271.4
2021-11-15T09:13:03,42.805,6.029,-0.04,-0.01,-0.018,100.0,100.0,100.0,13.3,1505.2,329.1,-0.8,1.8,2470.622,13.28,0.041,256.0
2021-11-15T09:16:03,42.805,6.029,-0.059,-0.002,-0.019,99.0,100.0,101.0,13.4,1505.2,331.5,-0.8,1.8,2470.644,13.28,0.059,268.1
2021-11-15T09:19:03,42.805,6.029,-0.041,-0.008,-0.011,100.0,99.0,100.0,13.3,1505.2,328.0,-0.7,1.8,2470.629,13.28,0.041,259.0
2021-11-15T09:22:03,42.805,6.029,-0.047,0.021,-0.027,100.0,100.0,99.0,13.4,1505.2,328.7,-0.8,1.8,2470.605,13.28,0.051,294.1
2021-11-15T09:25:03,42.805,6.029,-0.056,-0.002,-0.036,99.0,101.0,100.0,13.3,1505.2,326.5,-0.7,1.8,2470.623,13.28,0.056,268.0
2021-11-15T09:28:03,42.805,6.029,-0.063,-0.004,-0.038,101.0,98.0,99.0,13.4,1505.2,327.5,-0.8,1.8,2470.622,13.28,0.063,266.4
2021-11-15T09:31:03,42.805,6.029,-0.031,-0.014,-0.031,101.0,99.0,99.0,13.4,1505.2,329.7,-0.7,1.8,2470.619,13.28,0.034,245.7
2021-11-15T09:34:03,42.805,6.029,-0.06,0.003,-0.044,100.0,100.0,100.0,13.3,1505.2,330.0,-0.8,1.8,2470.586,13.28,0.06,272.9
2021-11-15T09:37:03,42.805,6.029,-0.041,-0.02,-0.035,100.0,99.0,101.0,13.4,1505.2,327.2,-0.7,1.9,2470.563,13.28,0.045,244.0
2021-11-15T09:40:03,42.805,6.029,-0.031,0.021,0.023,100.0,100.0,99.0,13.3,1505.2,326.2,-0.7,1.8,2470.596,13.28,0.037,304.1
2021-11-15T09:43:03,42.805,6.029,-0.046,-0.001,-0.021,100.0,100.0,100.0,13.4,1505.2,326.8,-0.7,1.8,2470.623,13.28,0.046,268.8
2021-11-15T09:46:03,42.805,6.029,-0.044,-0.001,-0.011,100.0,100.0,100.0,13.4,1505.2,331.1,-0.8,1.8,2470.626,13.28,0.044,268.7
2021-11-15T09:49:03,42.805,6.029,-0.062,0.013,-0.033,101.0,98.0,99.0,13.4,1505.2,325.9,-0.8,1.8,2470.579,13.28,0.063,281.8
2021-11-15T09:52:03,42.805,6.029,-0.026,-0.004,-0.033,100.0,100.0,100.0,13.3,1505.2,327.1,-0.7,1.8,2470.593,13.28,0.026,261.3
2021-11-15T09:55:03,42.805,6.029,-0.059,0.0,-0.034,100.0,100.0,100.0,13.4,1505.2,331.1,-0.7,1.8,2470.558,13.28,0.058,270.0